#timestamp,LO_Frequency,Hit,StdDev 
1666677615.1,286047000.4,N
1666677635.8,286046998.1,N
1666677655.7,286046998.7,N
1666677675.5,286046998.7,N
1666677695.4,286046998.1,N
1666677715.2,286047002.4,N
1666677735.0,286047002.1,N
1666677735.9,286047002.1,N
1666677755.8,286047002.0,N
1666677775.6,286047001.7,N
1666677795.4,286047002.5,N
1666677815.3,286047002.5,N
1666677835.1,286047000.2,N
1666677855.9,286046999.9,N
1666677875.7,286046998.1,N
1666677895.5,286046999.9,N
1666677915.4,286046999.7,N
1666677935.2,286047002.8,N
1666677955.0,286047004.0,N
1666677956.0,286047004.0,N
1666677975.8,286047001.5,N
1666677995.6,286047004.0,N
1666678015.5,286047002.2,N
1666678035.3,286047001.5,N
1666678055.1,286047001.7,N
1666678075.9,286047001.7,N
1666678095.7,286047001.5,N
1666678115.6,286047003.8,N
1666678135.4,286047003.7,N
1666678155.2,286047003.7,N
1666678175.1,286047002.7,N
1666678176.0,286047002.7,N
1666678195.8,286047002.1,N
1666678215.6,286047003.7,N
1666678235.5,286047003.9,N
1666678255.3,286047003.6,N
1666678275.2,286047003.4,N
1666678295.9,286047004.1,N
1666678315.7,286047004.2,N
1666678335.6,286047001.7,N
1666678355.4,286047001.8,N
1666678375.2,286047001.4,N
1666678395.1,286047001.8,N
1666678396.0,286047001.8,N
1666678415.8,286047003.6,N
1666678435.7,286047003.0,N
1666678455.5,286047005.4,Y
1666678475.3,286047004.3,P
1666678495.2,286047002.2,N
1666678515.0,286047004.1,P
1666678515.9,286047004.1,Y
1666678535.8,286046998.4,P
1666678555.6,286046999.0,N
1666678575.4,286046996.6,N
1666678595.3,286046997.2,N
1666678615.1,286046995.8,N
1666678635.8,286046995.9,N
1666678655.7,286046995.8,N
1666678675.5,286046997.9,N
1666678695.4,286046997.3,N
1666678715.2,286046997.1,N
1666678735.0,286046997.2,N
1666678735.9,286046997.2,N
1666678755.8,286046997.6,N
1666678775.6,286046993.4,Y
1666678795.4,286046997.3,P
1666678815.3,286046997.2,P
1666678835.1,286046999.5,P
1666678855.9,286046997.2,Y
1666678875.7,286047002.8,P
1666678895.5,286047002.0,N
1666678915.4,286047001.4,N
1666678935.2,286047001.3,N
1666678955.0,286047002.5,N
1666678955.9,286047002.5,N
1666678975.8,286047002.2,N
1666678995.6,286047001.8,N
1666679015.5,286047002.0,N
1666679035.3,286047001.5,N
1666679055.1,286047001.5,N
1666679075.9,286047001.6,N
1666679095.7,286047002.1,N
1666679115.5,286047001.3,N
1666679135.4,286047001.9,N
1666679155.2,286047002.7,N
1666679175.1,286047001.7,N
1666679176.0,286047001.7,N
1666679195.8,286046999.7,N
1666679215.7,286047002.8,N
1666679235.5,286047002.4,N
1666679255.3,286047001.8,N
1666679275.2,286047003.8,Y
1666679295.0,286047002.6,P
1666679295.9,286047002.6,P
1666679315.7,286047002.5,P
1666679335.6,286047002.5,Y
1666679355.4,286046996.6,P
1666679375.3,286046996.7,N
1666679395.1,286046999.5,N
1666679415.8,286046997.0,N
1666679435.7,286046995.0,N
1666679455.5,286046996.6,N
1666679475.4,286046996.9,N
1666679495.2,286046996.6,N
1666679515.0,286046999.2,N
1666679515.9,286046999.2,N
1666679535.8,286046998.9,N
1666679555.6,286046999.2,N
1666679575.5,286046998.3,N
1666679595.3,286047001.1,N
1666679615.1,286046998.7,N
1666679635.9,286046998.1,N
1666679655.7,286047000.8,N
1666679675.5,286046998.5,N
1666679695.4,286046998.8,N
1666679715.2,286046998.7,N
1666679735.1,286046999.5,N
1666679736.0,286046999.5,N
1666679755.8,286046998.9,N
1666679775.6,286046998.9,N
1666679795.5,286046998.6,N
1666679815.3,286046998.3,N
1666679835.2,286046997.1,N
1666679855.9,286046997.1,N
1666679875.7,286046996.9,N
1666679895.6,286046995.3,Y
1666679915.4,286046996.5,P
1666679935.2,286046997.9,N
1666679955.1,286046996.9,P
1666679956.0,286046996.9,Y
1666679975.8,286046998.5,P
1666679995.7,286047000.4,N
1666680015.5,286047002.7,N
1666680035.3,286047001.4,N
1666680055.2,286047001.7,N
1666680075.0,286047004.2,N
1666680075.9,286047004.2,N
1666680095.8,286047003.0,N
1666680115.6,286047004.3,N
1666680135.4,286047001.3,N
1666680155.3,286047002.2,N
1666680175.1,286047002.2,N
1666680195.8,286047002.8,N
1666680215.7,286047001.9,N
1666680235.5,286047004.4,N
1666680255.4,286047003.6,N
1666680275.2,286047003.3,N
1666680295.0,286047003.1,N
1666680295.9,286047003.1,N
1666680315.8,286047001.5,N
1666680335.6,286047001.5,N
1666680355.5,286047002.4,N
1666680375.3,286047001.2,N
1666680395.1,286047000.9,N
1666680415.9,286047000.3,N
1666680435.7,286046999.1,N
1666680455.5,286046999.0,N
1666680475.4,286046998.2,N
1666680495.2,286047000.3,N
1666680515.1,286047002.6,N
1666680516.0,286047002.6,N
1666680535.8,286047001.3,N
1666680555.6,286047001.8,N
1666680575.5,286047001.9,N
1666680595.3,286047001.7,N
1666680615.1,286047001.7,N
1666680635.9,286046999.8,N
1666680655.7,286047002.7,N
1666680675.6,286047004.0,N
1666680695.4,286047003.2,N
1666680715.2,286047002.6,N
1666680735.1,286047002.6,N
1666680736.0,286047002.6,N
1666680755.8,286047002.2,N
1666680775.7,286047000.0,N
1666680795.5,286047000.2,N
1666680815.3,286047002.5,N
1666680835.2,286047001.5,N
1666680855.0,286047002.6,N
1666680855.9,286047002.6,N
1666680875.7,286047002.8,N
1666680895.6,286047002.8,N
1666680915.4,286047001.4,N
1666680935.3,286047001.3,N
1666680955.1,286047002.4,N
1666680956.0,286047002.4,N
1666680975.8,286047001.7,N
1666680995.7,286047004.4,Y
1666681015.5,286047002.1,P
1666681035.3,286047001.7,P
1666681055.2,286047001.8,P
1666681075.0,286047003.8,Y
1666681075.9,286047003.8,P
1666681095.8,286046999.9,N
1666681115.6,286047000.4,N
1666681135.4,286047000.1,N
1666681155.3,286047001.2,N
1666681175.1,286047001.1,N
1666681195.9,286047000.0,N
